Date String (YYYY-MM-DD hh:mm:ss) UTC,Instrument flags,Ambient pressure (hPa),Sample flow (lpm),Bypass flow (lpm),Sample temperature (°C),Ambient temperature (°C),ASC tube jacket temperature (°C),LED temperature (°C),Box temperature (°C),Sample RH (%),Span deviation,Mass concentration (μg/m³),Mass concentration (μg/m³),Mass concentration (μg/m³)
DateTimeUTC,F1_M11,P_M11,Q1_M11,Q2_M11,T1_M11,T2_M11,T3_M11,T4_M11,T5_M11,U1_M11,ZSPAN_M11,X0_M11,X2_M11,X1_M11
2021-09-03 05:00:00,,0828.9,5.00,0.00,29.8,28.7,00.0,38.8,31.5,29.3,0001.6,0019.28,0016.26,0015.79
2021-09-03 05:01:00,,0828.9,5.00,0.00,29.8,28.8,00.0,38.8,31.5,29.2,0001.5,0019.28,0016.21,0015.72
2021-09-03 05:02:00,,0828.9,5.01,0.00,29.8,28.8,00.0,38.8,31.6,29.2,0001.5,0019.20,0016.14,0015.65
2021-09-03 05:03:00,,0829.0,5.00,0.00,29.8,28.8,00.0,38.8,31.6,29.3,0001.5,0019.17,0016.05,0015.57
2021-09-03 05:04:00,,0828.9,5.00,0.00,29.9,28.9,00.0,38.8,31.6,29.1,0001.8,0019.17,0016.00,0015.52
2021-09-03 05:05:00,,0828.9,5.00,0.00,29.9,28.9,00.0,38.9,31.7,29.3,0001.8,0019.08,0015.94,0015.48
2021-09-03 05:06:00,,0829.0,5.00,0.00,29.9,28.9,00.0,38.9,31.7,28.8,0002.0,0019.05,0015.92,0015.45
2021-09-03 05:07:00,,0828.9,5.01,0.00,29.9,27.5,00.0,38.9,31.3,29.1,0002.2,0019.07,0015.93,0015.46
2021-09-03 05:08:00,,0828.9,4.99,0.00,29.7,26.3,00.0,38.9,31.0,29.7,0002.3,0018.59,0015.95,0015.48
2021-09-03 05:09:00,,0828.9,5.00,0.00,29.6,26.3,00.0,38.8,30.9,29.7,0002.3,0018.68,0015.99,0015.53
2021-09-03 05:10:00,,0828.9,5.00,0.00,29.5,26.7,00.0,38.8,31.0,29.9,0002.6,0018.61,0016.01,0015.55
2021-09-03 05:11:00,,0829.0,5.00,0.00,29.5,27.1,00.0,38.7,31.0,29.8,0002.4,0018.69,0016.06,0015.60
2021-09-03 05:12:00,,0829.0,5.00,0.00,29.5,27.5,00.0,38.7,31.1,29.6,0002.5,0019.21,0016.06,0015.59
2021-09-03 05:13:00,,0829.3,5.00,0.00,29.5,27.7,00.0,38.7,31.2,29.7,0002.5,0019.73,0016.06,0015.59
2021-09-03 05:14:00,,0829.3,4.99,0.00,29.5,27.9,00.0,38.7,31.2,30.0,0002.5,0019.64,0016.04,0015.58
2021-09-03 05:15:00,,0828.9,5.01,0.00,29.5,28.1,00.0,38.7,31.2,29.9,0002.2,0019.50,0016.01,0015.56
2021-09-03 05:16:00,,0828.9,5.00,0.00,29.6,28.2,00.0,38.7,31.3,29.6,0002.1,0019.55,0015.99,0015.53
2021-09-03 05:17:00,,0828.8,5.00,0.00,29.6,28.3,00.0,38.7,31.4,29.2,0001.9,0019.52,0015.96,0015.52
2021-09-03 05:18:00,,0828.8,5.00,0.00,29.6,28.4,00.0,38.7,31.4,29.4,0001.6,0019.45,0015.95,0015.51
2021-09-03 05:19:00,,0828.8,5.01,0.00,29.6,28.5,00.0,38.7,31.4,29.6,0001.6,0019.48,0015.96,0015.49
2021-09-03 05:20:00,,0828.8,5.00,0.00,29.7,28.6,00.0,38.7,31.4,29.2,0001.6,0019.33,0015.90,0015.45
2021-09-03 05:21:00,,0828.9,4.99,0.00,29.7,28.6,00.0,38.7,31.4,28.5,0001.8,0019.28,0015.89,0015.44
2021-09-03 05:22:00,,0828.8,5.01,0.00,29.7,28.7,00.0,38.7,31.5,29.3,0001.9,0019.27,0015.87,0015.43
2021-09-03 05:23:00,,0828.8,4.99,0.00,29.8,28.7,00.0,38.8,31.5,28.9,0001.8,0018.64,0015.84,0015.42
2021-09-03 05:24:00,,0828.9,5.01,0.00,29.8,28.8,00.0,38.8,31.5,28.8,0001.8,0018.58,0015.81,0015.41
2021-09-03 05:25:00,,0829.3,5.01,0.00,29.8,28.8,00.0,38.8,31.5,28.6,0001.9,0019.02,0015.85,0015.44
2021-09-03 05:26:00,,0829.3,5.00,0.00,29.8,28.9,00.0,38.8,31.6,29.2,0002.1,0019.06,0015.89,0015.47
2021-09-03 05:27:00,,0829.3,5.00,0.00,29.8,28.9,00.0,38.8,31.6,28.4,0002.0,0019.14,0015.93,0015.50
2021-09-03 05:28:00,,0829.2,5.00,0.00,29.9,28.9,00.0,38.9,31.7,28.8,0002.1,0019.23,0015.96,0015.50
2021-09-03 05:29:00,,0829.2,5.01,0.00,29.9,28.9,00.0,38.9,31.7,29.0,0002.2,0019.22,0015.96,0015.51
2021-09-03 05:30:00,,0829.2,4.99,0.00,29.9,28.3,00.0,38.9,31.5,29.3,0002.1,0019.10,0015.92,0015.49
2021-09-03 05:31:00,,0829.3,5.00,0.00,29.8,26.5,00.0,38.9,31.0,29.5,0002.2,0019.37,0015.93,0015.49
2021-09-03 05:32:00,,0829.3,5.00,0.00,29.6,26.1,00.0,38.9,30.9,29.9,0002.1,0020.01,0015.97,0015.48
2021-09-03 05:33:00,,0829.4,5.01,0.00,29.5,26.4,00.0,38.8,30.9,29.9,0001.9,0020.78,0015.96,0015.48
2021-09-03 05:34:00,,0829.3,5.00,0.00,29.5,26.9,00.0,38.8,31.0,29.8,0001.9,0021.17,0016.01,0015.51
2021-09-03 05:35:00,,0829.2,5.00,0.00,29.5,27.2,00.0,38.7,31.1,29.8,0001.9,0020.66,0016.03,0015.52
2021-09-03 05:36:00,,0829.2,5.01,0.00,29.5,27.6,00.0,38.7,31.1,29.9,0001.9,0020.35,0016.05,0015.51
2021-09-03 05:37:00,,0829.1,4.99,0.00,29.5,27.8,00.0,38.7,31.2,30.1,0001.8,0020.39,0016.05,0015.52
2021-09-03 05:38:00,,0829.2,5.00,0.00,29.5,28.0,00.0,38.7,31.3,29.5,0001.7,0020.35,0016.01,0015.51
2021-09-03 05:39:00,,0829.4,4.99,0.00,29.5,28.2,00.0,38.7,31.3,29.6,0001.8,0020.55,0016.00,0015.49
2021-09-03 05:40:00,,0829.0,5.01,0.00,29.6,28.3,00.0,38.7,31.3,29.1,0002.0,0020.62,0016.00,0015.48
2021-09-03 05:41:00,,0829.2,5.00,0.00,29.6,28.4,00.0,38.7,31.4,29.2,0002.1,0020.67,0016.02,0015.51
2021-09-03 05:42:00,,0829.3,4.99,0.00,29.6,28.5,00.0,38.7,31.4,29.0,0002.1,0020.39,0016.01,0015.50
2021-09-03 05:43:00,,0829.2,5.00,0.00,29.7,28.5,00.0,38.7,31.4,29.2,0002.2,0019.99,0015.98,0015.50
2021-09-03 05:44:00,,0829.0,5.00,0.00,29.7,28.6,00.0,38.7,31.4,29.6,0002.3,0019.60,0015.98,0015.51
2021-09-03 05:45:00,,0829.2,5.00,0.00,29.7,28.6,00.0,38.7,31.5,29.3,0002.4,0019.20,0015.92,0015.47
2021-09-03 05:46:00,,0829.3,5.00,0.00,29.7,28.7,00.0,38.7,31.5,29.4,0002.4,0019.19,0015.92,0015.48
2021-09-03 05:47:00,,0829.3,5.01,0.00,29.8,28.7,00.0,38.8,31.5,29.2,0002.4,0019.16,0015.92,0015.49
2021-09-03 05:48:00,,0829.2,4.99,0.00,29.8,28.8,00.0,38.8,31.6,29.0,0002.5,0019.68,0015.94,0015.49
2021-09-03 05:49:00,,0829.3,5.00,0.00,29.8,28.8,00.0,38.8,31.6,29.2,0002.5,0019.67,0015.94,0015.49
2021-09-03 05:50:00,,0829.3,5.00,0.00,29.8,28.8,00.0,38.8,31.6,29.2,0002.5,0019.67,0015.97,0015.52
2021-09-03 05:51:00,,0829.3,5.01,0.00,29.9,28.9,00.0,38.8,31.6,29.3,0002.2,0019.72,0015.98,0015.53
2021-09-03 05:52:00,,0829.2,5.00,0.00,29.9,28.9,00.0,38.9,31.7,29.0,0002.0,0020.07,0016.02,0015.53
2021-09-03 05:53:00,,0829.2,5.00,0.00,29.9,29.0,00.0,38.9,31.7,28.9,0001.8,0021.34,0016.09,0015.57
2021-09-03 05:54:00,,0829.3,4.99,0.00,29.9,29.0,00.0,38.9,31.7,28.8,0001.7,0021.15,0016.10,0015.59
2021-09-03 05:55:00,,0829.3,5.00,0.00,29.9,28.5,00.0,38.9,31.6,29.0,0001.7,0020.67,0016.09,0015.60
2021-09-03 05:56:00,,0829.3,5.00,0.00,29.8,26.6,00.0,38.9,31.1,29.1,0001.6,0020.78,0016.14,0015.64
2021-09-03 05:57:00,,0829.1,5.00,0.00,29.7,26.1,00.0,38.9,31.0,29.7,0001.7,0020.88,0016.15,0015.64
2021-09-03 05:58:00,,0828.9,5.00,0.00,29.6,26.4,00.0,38.8,31.0,29.5,0001.6,0020.81,0016.11,0015.63
2021-09-03 05:59:00,,0829.1,5.01,0.00,29.5,26.8,00.0,38.8,31.0,30.0,0001.8,0020.17,0016.06,0015.62
